Hourly Weather Ruze

Today, 16 June, Wednesday

Time Temperature Precipitation Wind Pressure Humidity
00:00 +11°C° 0 mm 3 mps 755 mmHg 91%
01:00 +10°C° 0 mm 3 mps 755 mmHg 89%
02:00 +10°C° 0 mm 3 mps 756 mmHg 89%
03:00 +9°C° 0 mm 3 mps 756 mmHg 89%
04:00 +9°C° 0 mm 2 mps 756 mmHg 89%
05:00 +12°C° 0 mm 2 mps 756 mmHg 83%
06:00 +13°C° 0 mm 2 mps 756 mmHg 77%
07:00 +15°C° 0 mm 2 mps 756 mmHg 72%
08:00 +17°C° 0 mm 2 mps 756 mmHg 65%
09:00 +19°C° 0 mm 1 mps 756 mmHg 58%
10:00 +21°C° 0 mm 1 mps 756 mmHg 51%
11:00 +22°C° 0 mm 1 mps 756 mmHg 49%
12:00 +22°C° 0 mm 1 mps 756 mmHg 47%
13:00 +23°C° 0 mm 2 mps 756 mmHg 45%
14:00 +24°C° 0 mm 2 mps 756 mmHg 45%
15:00 +24°C° 0 mm 2 mps 755 mmHg 45%
16:00 +24°C° 0 mm 2 mps 755 mmHg 45%
17:00 +23°C° 0 mm 2 mps 755 mmHg 52%
18:00 +21°C° 0 mm 2 mps 755 mmHg 59%
19:00 +20°C° 0 mm 2 mps 755 mmHg 65%
20:00 +18°C° 0 mm 2 mps 756 mmHg 68%
21:00 +17°C° 0 mm 2 mps 756 mmHg 70%
22:00 +15°C° 0 mm 2 mps 756 mmHg 73%
23:00 +15°C° 0 mm 2 mps 756 mmHg 74%

Tomorrow, 17 June, Thursday

Time Temperature Precipitation Wind Pressure Humidity
00:00 +13°C° 0 mm 3 mps 756 mmHg 75%
01:00 +13°C° 0 mm 3 mps 756 mmHg 77%
02:00 +12°C° 0 mm 3 mps 756 mmHg 79%
03:00 +12°C° 0 mm 3 mps 756 mmHg 80%
04:00 +12°C° 0 mm 3 mps 756 mmHg 82%
05:00 +14°C° 0 mm 3 mps 757 mmHg 77%
06:00 +15°C° 0 mm 4 mps 757 mmHg 72%
07:00 +18°C° 0 mm 4 mps 757 mmHg 67%
08:00 +20°C° 0 mm 4 mps 757 mmHg 62%
09:00 +21°C° 0 mm 4 mps 757 mmHg 57%
10:00 +23°C° 0 mm 5 mps 757 mmHg 52%
11:00 +25°C° 0 mm 5 mps 757 mmHg 49%
12:00 +25°C° 0 mm 5 mps 757 mmHg 46%
13:00 +26°C° 0 mm 5 mps 757 mmHg 44%
14:00 +26°C° 0 mm 4 mps 756 mmHg 45%
15:00 +26°C° 0 mm 4 mps 756 mmHg 46%
16:00 +27°C° 0 mm 4 mps 756 mmHg 47%
17:00 +25°C° 0 mm 3 mps 756 mmHg 54%
18:00 +24°C° 0 mm 3 mps 756 mmHg 62%
19:00 +21°C° 0 mm 3 mps 756 mmHg 69%
20:00 +20°C° 0 mm 3 mps 756 mmHg 72%
21:00 +19°C° 0 mm 3 mps 756 mmHg 75%
22:00 +17°C° 0 mm 3 mps 756 mmHg 77%
23:00 +17°C° 0 mm 3 mps 756 mmHg 79%

Day after tomorrow, 18 June, Friday

Time Temperature Precipitation Wind Pressure Humidity
00:00 +16°C° 0 mm 3 mps 756 mmHg 80%
01:00 +16°C° 0 mm 3 mps 756 mmHg 81%
02:00 +14°C° 0 mm 3 mps 756 mmHg 84%
03:00 +14°C° 0 mm 3 mps 756 mmHg 86%
04:00 +14°C° 0 mm 3 mps 756 mmHg 89%
05:00 +17°C° 0 mm 4 mps 756 mmHg 84%
06:00 +19°C° 0 mm 4 mps 756 mmHg 79%
07:00 +22°C° 0 mm 4 mps 756 mmHg 74%
08:00 +23°C° 0 mm 5 mps 756 mmHg 69%
09:00 +26°C° 0 mm 5 mps 756 mmHg 64%
10:00 +27°C° 0 mm 5 mps 756 mmHg 59%
11:00 +28°C° 0 mm 5 mps 756 mmHg 56%
12:00 +29°C° 0 mm 5 mps 756 mmHg 53%
13:00 +30°C° 0 mm 6 mps 755 mmHg 50%
14:00 +30°C° 0 mm 5 mps 755 mmHg 52%
15:00 +30°C° 0 mm 5 mps 755 mmHg 54%
16:00 +30°C° 0 mm 5 mps 755 mmHg 56%
17:00 +29°C° 0 mm 4 mps 755 mmHg 61%
18:00 +27°C° 0 mm 4 mps 755 mmHg 67%
19:00 +26°C° 0 mm 4 mps 755 mmHg 72%
20:00 +25°C° 0 mm 4 mps 755 mmHg 74%
21:00 +23°C° 0 mm 4 mps 755 mmHg 76%
22:00 +22°C° 0 mm 4 mps 755 mmHg 77%
23:00 +21°C° 0 mm 4 mps 755 mmHg 80%

19 June, Saturday

Time Temperature Precipitation Wind Pressure Humidity
00:00 +20°C° 0 mm 4 mps 755 mmHg 83%
01:00 +19°C° 0 mm 4 mps 755 mmHg 86%
02:00 +19°C° 0 mm 4 mps 755 mmHg 88%
03:00 +19°C° 0 mm 4 mps 755 mmHg 90%
04:00 +18°C° 0 mm 4 mps 755 mmHg 92%
05:00 +20°C° 0 mm 4 mps 755 mmHg 86%
06:00 +22°C° 0 mm 4 mps 755 mmHg 81%
07:00 +23°C° 0 mm 5 mps 755 mmHg 75%
08:00 +26°C° 0 mm 5 mps 755 mmHg 69%
09:00 +27°C° 0 mm 5 mps 755 mmHg 64%
10:00 +29°C° 0 mm 5 mps 755 mmHg 58%
11:00 +29°C° 0 mm 6 mps 755 mmHg 55%
12:00 +30°C° 0 mm 6 mps 754 mmHg 53%
13:00 +32°C° 0 mm 6 mps 754 mmHg 50%
14:00 +32°C° 0 mm 5 mps 754 mmHg 50%
15:00 +32°C° 0 mm 5 mps 754 mmHg 51%
16:00 +32°C° 0 mm 4 mps 754 mmHg 51%
17:00 +30°C° 0 mm 4 mps 754 mmHg 57%
18:00 +29°C° 0 mm 4 mps 754 mmHg 64%
19:00 +27°C° 0 mm 4 mps 754 mmHg 70%
20:00 +26°C° 0 mm 4 mps 754 mmHg 72%
21:00 +25°C° 0 mm 4 mps 754 mmHg 74%
22:00 +23°C° 0 mm 4 mps 755 mmHg 76%
23:00 +22°C° 0 mm 4 mps 754 mmHg 79%

20 June, Sunday

Time Temperature Precipitation Wind Pressure Humidity
00:00 +22°C° 0 mm 4 mps 754 mmHg 83%
01:00 +21°C° 0 mm 4 mps 754 mmHg 86%
02:00 +20°C° 0 mm 4 mps 754 mmHg 89%
03:00 +20°C° 0 mm 3 mps 754 mmHg 91%
04:00 +19°C° 0 mm 3 mps 754 mmHg 94%
05:00 +21°C° 0 mm 4 mps 754 mmHg 87%
06:00 +22°C° 0 mm 4 mps 754 mmHg 80%
07:00 +23°C° 0 mm 5 mps 754 mmHg 73%
08:00 +26°C° 0 mm 5 mps 754 mmHg 67%
09:00 +27°C° 0 mm 5 mps 754 mmHg 62%
10:00 +28°C° 0 mm 5 mps 754 mmHg 57%
11:00 +29°C° 0 mm 5 mps 754 mmHg 54%
12:00 +30°C° 0 mm 5 mps 754 mmHg 52%
13:00 +30°C° 0 mm 5 mps 753 mmHg 49%
14:00 +30°C° 0 mm 5 mps 753 mmHg 50%
15:00 +30°C° 0 mm 5 mps 753 mmHg 51%
16:00 +30°C° 0 mm 5 mps 753 mmHg 52%
17:00 +29°C° 0 mm 4 mps 752 mmHg 58%
18:00 +28°C° 0 mm 4 mps 752 mmHg 64%
19:00 +27°C° 0 mm 3 mps 752 mmHg 70%
20:00 +26°C° 0 mm 3 mps 752 mmHg 72%
21:00 +23°C° 0 mm 4 mps 752 mmHg 74%
22:00 +22°C° 0 mm 4 mps 753 mmHg 76%
23:00 +22°C° 0 mm 4 mps 752 mmHg 79%

21 June, Monday

Time Temperature Precipitation Wind Pressure Humidity
00:00 +21°C° 0 mm 4 mps 752 mmHg 82%
01:00 +20°C° 0 mm 4 mps 752 mmHg 85%
02:00 +20°C° 0 mm 4 mps 752 mmHg 87%
03:00 +20°C° 0 mm 4 mps 752 mmHg 90%
04:00 +20°C° 0 mm 4 mps 752 mmHg 92%
05:00 +21°C° 0 mm 5 mps 752 mmHg 85%
06:00 +23°C° 0 mm 5 mps 752 mmHg 78%
07:00 +24°C° 0 mm 6 mps 752 mmHg 72%
08:00 +26°C° 0 mm 6 mps 751 mmHg 66%
09:00 +28°C° 0 mm 7 mps 751 mmHg 60%
10:00 +29°C° 0 mm 7 mps 751 mmHg 54%
11:00 +30°C° 0 mm 7 mps 751 mmHg 52%
12:00 +30°C° 0 mm 7 mps 751 mmHg 49%
13:00 +32°C° 0 mm 7 mps 750 mmHg 47%
14:00 +32°C° 0 mm 6 mps 750 mmHg 48%
15:00 +32°C° 0 mm 6 mps 750 mmHg 50%
16:00 +32°C° 0 mm 6 mps 750 mmHg 51%
17:00 +30°C° 0 mm 6 mps 749 mmHg 55%
18:00 +28°C° 0 mm 6 mps 749 mmHg 59%
19:00 +27°C° 0 mm 6 mps 749 mmHg 64%
20:00 +26°C° 0 mm 6 mps 749 mmHg 65%
21:00 +24°C° 0 mm 6 mps 749 mmHg 66%
22:00 +23°C° 0 mm 6 mps 749 mmHg 67%
23:00 +23°C° 0 mm 5 mps 748 mmHg 71%
Show more